Other Public Products
Issued by NWS Grand Forks, ND

Home | Current Version | Previous Version | Text Only | Print | Product List | Glossary Off
Versions: 1 2 3 4 5 6 7 8 9 10 11 12 13 14 15 16 17 18 19 20 21 22 23 24 25 26 27 28 29 30 31 32 33 34 35 36 37 38 39 40 41 42 43 44 45 46 47 48 49 50

000
FPUS83 KFGF 271731
OPUFGF
PRAIRIE TO PINES WEATHER ROUNDUP
NATIONAL WEATHER SERVICE EASTERN NORTH DAKOTA/GRAND FORKS ND
1200 PM CDT WED AUG 27 2014

 **SATELLITE DATA USED TO AUGMENT SKY COVER AT AUTOMATED STATIONS**
 *****  WEATHER ACROSS EASTERN NORTH DAKOTA  *****

CITY           SKY/WX    TMP DP  RH WIND       PRES   REMARKS
GRAND FORKS    MOSUNNY   69  54  58 S7        30.17S
GRAND FORKS AF SUNNY     69  56  61 SW8       30.18S
GRAND CITY NWS   N/A     72 N/A N/A S6          N/A
BUXTON           N/A     71  56  58 S6          N/A
DEVILS LAKE    SUNNY     66  54  63 SW6       30.15F
FARGO          MOSUNNY   69  58  67 E3        30.19F
WAHPETON ARPT  MOSUNNY   68  55  64 S5        30.19F
$$

 *****  WEATHER ACROSS CENTRAL AND WESTERN NORTH DAKOTA  *****

CITY           SKY/WX    TMP DP  RH WIND       PRES   REMARKS
JAMESTOWN      SUNNY     67  58  72 VRB7      30.17F
BISMARCK       SUNNY     68  58  70 SE6       30.16F
MINOT          SUNNY     70  55  59 SE10      30.11F
MINOT AFB      SUNNY     70  56  63 S8        30.11F
GARRISON         N/A     68  59  73 S10       30.14S
WILLISTON      SUNNY     70  57  63 VRB7      30.08F
DICKINSON      SUNNY     70  58  65 S12       30.12F
HETTINGER      SUNNY     70  57  63 SE12G20   30.15F
$$

 *****  OTHER OBSERVATIONS NORTHEAST NORTH DAKOTA  *****

CITY           SKY/WX    TMP DP  RH WIND       PRES   REMARKS
WALHALLA       FAIR      72  48  43 S5        30.15S
LANGDON        FAIR      70  50  49 SW10G17   30.16S
CAVALIER       FAIR      72  54  53 SE7       30.15S
GRAFTON        FAIR      70  50  49 S7        30.16F
CANDO          FAIR      68  54  60 S9        30.16S
FORT TOTTEN    NOT AVBL
ROLLA          FAIR      66  54  63 S10       30.16S
RUGBY          FAIR      66  55  68 S8        30.14F
 ***** THE ABOVE OBSERVATIONS ARE NON NWS ARE NOT QUALITY
        CONTROLLED AND MAY MIS-REPORT RAIN FOR SNOW...
$$

 *****  OTHER OBSERVATIONS SOUTHEAST NORTH DAKOTA *****

CITY           SKY/WX    TMP DP  RH WIND       PRES   REMARKS
COOPERSTOWN    NOT AVBL
VALLEY CITY    FAIR      68  59  73 SE8       30.18F
OAKES            N/A     72  63  73 E9        30.18S
GWINNER        SUNNY     70  59  68 E8        30.19F
BUFFALO          N/A     68  53  59 CALM        N/A
WYNDMERE       NOT AVBL
 ***** THE ABOVE OBSERVATIONS ARE NON NWS ARE NOT QUALITY
       CONTROLLED AND MAY MIS-REPORT RAIN FOR SNOW...
$$

  *****  WEATHER ACROSS NORTHERN MINNESOTA  *****

CITY           SKY/WX    TMP DP  RH WIND       PRES   REMARKS
FLAG ISLAND    SUNNY     64  57  77 S7        30.16S
WARROAD        SUNNY     64  52  63 MISG      30.18S
ROSEAU         SUNNY     68  50  52 S5        30.18S
HALLOCK        SUNNY     70  55  60 S6        30.16S
THF RVR FALLS  SUNNY     68  52  56 CALM      30.19S
HALSTAD          N/A     69  54  58 S3          N/A
FOSSTON        MOSUNNY   66  55  68 W6        30.21S
BAUDETTE       SUNNY     65  55  70 MISG      30.19S
WASKISH        SUNNY     68  57  68 SW6       30.19S
CROOKSTON      SUNNY     70  54  56 SW7       30.19S
$$
  *****  WEATHER ACROSS CENTRAL AND WEST MINNESOTA  *****

CITY           SKY/WX    TMP DP  RH WIND       PRES   REMARKS
BEMIDJI        MOSUNNY   67  51  56 SW6       30.21S
PARK RAPIDS    PTSUNNY   66  52  60 CALM      30.22S
WADENA         CLOUDY    64  55  72 CALM      30.21F
DETROIT LAKES  CLOUDY    66  54  63 S5        30.22F
MOORHEAD       SUNNY     68  61  77 CALM      30.19F
FERGUS FALLS   CLOUDY    68  54  60 S5        30.20F
ELBOW LAKE     FAIR      67  57  70 S7        30.21S
MORRIS MN      SUNNY     72  57  60 S8        30.20F
STAPLES        PTSUNNY   64  55  72 CALM      30.22F
WHEATON        PTSUNNY   66  57  72 S9        30.21F
$$
  *****  WEATHER ELSEWHERE ACROSS MINNESOTA  *****

CITY           SKY/WX    TMP DP  RH WIND       PRES   REMARKS
DULUTH         MOSUNNY   66  48  52 N8        30.22S
INTRNTL FALLS  PTSUNNY   65  51  60 VRB3      30.19S
ELY            MOSUNNY   64  46  52 SW6       30.21S
CLOQUET        PTSUNNY   66  46  48 S3        30.23R
BRAINERD       CLOUDY    65  55  70 CALM      30.23S
HIBBING        PTSUNNY   66  48  52 W7        30.22S
ALEXANDRIA     PTSUNNY   68  56  65 SE3       30.23F
SAINT CLOUD    PTSUNNY   70  54  56 E6        30.23R
MINNEAPOLIS    PTSUNNY   70  55  59 E6        30.23F
$$

  *****  WEATHER ACROSS SOUTH DAKOTA  *****

CITY           SKY/WX    TMP DP  RH WIND       PRES   REMARKS
SIOUX FALLS    CLOUDY    67  59  75 E10       30.18F
BROOKINGS      NOT AVBL
WATERTOWN      CLOUDY    66  56  70 SE10      30.20S
HURON          CLOUDY    69  60  73 SE7       30.16F
SISSETON         N/A     69  60  73 S14       30.19R
ABERDEEN       MOSUNNY   70  60  70 S14       30.17F
MITCHELL       CLOUDY    71  62  73 E10       30.15F
PIERRE         CLOUDY    66  63  90 E14       30.11S
MOBRIDGE       SUNNY     71  61  70 SE5       30.12F
RAPID CITY     SUNNY     70  60  70 NE12      30.14S
$$

  *****  SOME WEATHER IN NEARBY STATES *****

CITY           SKY/WX    TMP DP  RH WIND       PRES   REMARKS
GLASGOW MT     SUNNY     72  55  55 SE8       30.00F
GREAT FALLS MT SUNNY     74  45  35 SW10      30.07S
CHEYENNE WY    CLOUDY    65  53  65 W12       30.22R
SCOTTSBLUFF NE CLOUDY    71  63  75 E15       30.11S
OMAHA NE       LGT RAIN  69  66  90 E10       30.16F FOG
DES MOINES IA  CLOUDY    74  65  73 SE6       30.18R
DAVENPORT IA   CLOUDY    74  62  66 E3        30.18R
CHICAGO IL     PTSUNNY   78  57  48 CALM      30.14S
EAU CLAIRE WI  MOSUNNY   69  52  54 VRB5      30.22S
LA CROSSE WI   MOSUNNY   74  55  51 VRB3      30.20F
$$

  *****  SOME NATIONAL WEATHER *****

CITY           SKY/WX    TMP DP  RH WIND       PRES   REMARKS
LA GUARDIA NY  SUNNY     87  59  38 SW8       29.96F
RALEIGH NC     MOSUNNY   81  62  52 NE8       30.06F
ATLANTA GA     MOSUNNY   82  61  48 E7        30.12F
NEW ORLEANS LA PTSUNNY   89  74  60 NE13      30.02F HX  98
OKLAHOMA CITY  MOSUNNY   90  68  48 S3        30.10F HX  94
ALBUQUERQUE NM MOSUNNY   68  55  63 CALM      30.32S
SALT LAKE CITY CLOUDY    68  54  60 CALM      30.24R
LOS ANGELES CA SUNNY     82  56  40 CALM      30.04S
BOISE ID       SUNNY     76  44  32 CALM      30.15R
SEATTLE WA     SUNNY     69  58  67 VRB3      30.07R
$$

*** WEATHER ACROSS MANITOBA...SASKATCHEWAN AND ONTARIO ***
                ***ONTARIO***

CITY           SKY/WX    TMP DP  RH WIND       PRES   REMARKS
GERALDTON      CLOUDY    57  46  67 NW12      30.12R
THUNDER BAY    PTSUNNY   66  46  48 NW8       30.17S
SIOUX LOOKOUT  PTSUNNY   61  48  63 N3        30.17S
TORONTO        PTSUNNY   75  54  46 NW10G17   30.04F
BIG TROUT LK   CLOUDY    54  46  76 SW7       30.09F
PICKLE LAKE    PTSUNNY   57  41  54 NW5       30.12F
DRYDEN         MOSUNNY   61  43  51 W3        30.18S
KENORA         MOSUNNY   63  50  63 SW7       30.18S
$$
                *** MANITOBA***

CITY           SKY/WX    TMP DP  RH WIND       PRES   REMARKS
BRANDON        SUNNY     70  55  60 SW15      30.11F
DAUPHIN        SUNNY     73  55  53 SW16G22   30.02F
ISLAND LAKE    MOSUNNY   61  54  77 S6        30.01
PILOT MOUND      N/A     68  50  52 SW12G18     N/A
THE PAS        PTSUNNY   73  55  53 SW9       29.83F
THOMPSON       MOSUNNY   68  57  68 S12       29.80F
WINNIPEG       MOSUNNY   72  52  49 SW8       30.14S
LYNN LAKE      SUNNY     72  55  56 MISG      29.71
CHURCHILL      PTSUNNY   57  46  67 S23G31    29.75F
GILLAM         MOSUNNY   63  48  59 S25       29.86F
$$
                ***SASKATCHEWAN***

CITY           SKY/WX    TMP DP  RH WIND       PRES   REMARKS
ESTEVAN        MOSUNNY   73  59  60 S9        30.07F
KINDERSLEY     MOSUNNY   73  52  46 SW8       29.88F
LLOYDMINSTER   CLOUDY    64  55  72 NW5       29.86F
PRINCE ALBERT  PTSUNNY   72  57  60 S7        29.85F
REGINA         SUNNY     72  57  60 SE9       29.99F
YORKTON        SUNNY     72  55  56 S14       30.00F



USA.gov is the U.S. government's official web portal to all federal, state and local government web resources and services.